Погода в Троицком

Россия / Белгородская область     51°21′48″N   37°29′57″E
темп.,
°C
ветер,
м/с
пор.,
м/с
влажн.,
%
обл.,
%
осадки,
мм/ч
давл.,
гПа
погр.,
м
20 января, чт
чт2000:00−21зсз2110057 0.0 102110
03:00−21зюз2210097 0.0 102011
06:00−15ююз239484 0.0 101854
09:00−16ююз389561 0.0 1018109
12:00−10ююз5108945 0.0 1017239
15:00−9ю5118932 0.0 1015308
18:00−10ю5149134 0.0 1014273
21:00−9ю61594100 0.0 1012387
21 января, пт
пт2100:00−7ю61594100 0.2 1011412
03:00−6ююв71595100 0.9 1008469
06:00−5ю71695100 1.2 1004622
09:00−2ю61397100 2.9 1002678
12:00−2юз6109385 0.6 1002604
15:00−3зюз6119099 1.5 1003790
18:00−6юз6149171 0.0 1005466
21:00−4юз71490100 0.1 1005757
22 января, сб
сб2200:00−5юз81591100 0.1 1006596
03:00−6ююз7149180 0.1 1007533
06:00−7ююз6139291 0.0 1007397
09:00−10ю41196100 0.0 1009243
12:00−7ю51094100 0.0 1011345
15:00−6ю3794100 0.1 1012361
18:00−8ю2597100 0.1 101491
21:00−13ююв22100100 0.1 101618
23 января, вс
вс2300:00−11ююв119870 0.1 101712
03:00−15юв11100100 0.1 10199
06:00−16всв11100100 0.1 10219
09:00−17св22100100 0.1 102320
12:00−9св3496100 0.0 1024161
15:00−8ссв4995100 0.1 1024297
18:00−9ссв51392100 0.0 1025307
21:00−8ссв61589100 0.0 1025438
24 января, пн
пн2400:00−7ссв71595100 1.0 1024529
03:00−6св71495100 3.3 1023543
06:00−5св71495100 1.3 1023593
09:00−6всв61194100 1.6 1024487
12:00−6всв5893100 0.2 1026433
15:00−6св4895100 0.3 1026448
18:00−8св4996100 0.1 1026234
21:00−10ссв3797100 0.1 1026151